Theta_e
290 290 289 289 288 287 287 288 288 290 291 291 292 293 290 289 285 282 281 282 280 282 285 283 283 287 287 288 287 286 287 288 289 287 287 287 287 290 293 294 295 296 296 296 296 297 297 297 298 298 299 299 299 300 301 301 301 302 302 303 305 305 305 306 306 307 307 307 307 308 308 308 309 310
287 286 286 285 285 286 284 284 285 285 287 288 289 290 290 291 287 285 283 282 284 283 283 283 283 285 286 286 286 286 285 289 288 287 287 287 287 291 291 292 292 293 295 294 295 296 296 296 297 297 297 297 299 300 300 300 300 301 302 304 304 304 304 305 305 304 304 305 305 305 306 306 307 308
282 283 283 282 282 282 282 283 283 282 283 284 286 288 289 289 289 287 285 282 283 283 283 284 284 285 285 285 285 286 286 287 287 286 286 286 288 289 288 290 291 292 292 293 294 295 296 296 296 296 295 297 297 298 298 298 299 300 301 302 302 302 303 302 301 302 302 303 304 305 306 306 306 307
282 281 282 282 281 281 281 281 281 281 281 282 283 283 285 287 287 287 285 282 281 284 283 284 284 283 284 285 284 284 285 286 287 285 286 286 287 286 285 288 289 289 291 292 293 294 295 295 295 295 295 295 296 296 297 297 298 298 299 299 300 300 300 300 300 301 302 302 302 303 303 304 304 305
281 282 281 281 281 282 281 280 280 281 281 281 281 281 282 282 281 282 282 280 280 282 282 283 283 283 284 283 283 283 283 284 284 286 285 285 285 284 284 284 287 288 289 291 291 293 293 293 294 293 293 294 294 295 296 296 297 296 297 297 298 298 299 300 301 301 300 301 301 301 302 302 303 302
281 281 281 280 280 281 280 280 280 280 281 281 281 281 280 280 280 281 281 280 279 278 281 281 282 282 281 281 283 282 282 283 284 283 284 284 284 283 283 284 284 287 288 290 291 292 292 293 293 293 293 294 295 296 297 295 294 295 295 295 295 296 297 299 299 299 298 300 300 300 301 301 302 302
281 280 280 280 280 280 281 281 280 281 281 281 280 280 280 279 279 280 280 280 278 278 279 281 280 281 281 281 281 282 283 283 283 282 282 282 283 283 283 283 284 287 288 290 291 291 291 292 292 292 293 293 293 293 294 294 293 294 294 294 295 295 295 296 296 296 296 298 299 299 299 299 300 300
281 280 280 280 280 281 280 280 280 281 281 281 280 279 280 279 280 279 279 280 279 279 278 279 280 280 280 281 282 283 283 282 282 282 282 282 282 282 283 283 283 285 289 289 289 289 290 291 291 292 292 292 293 293 293 293 293 293 293 293 294 294 294 294 294 294 295 296 298 299 298 298 298 299
281 281 280 280 280 280 280 279 279 280 280 280 280 280 279 280 280 279 279 279 279 279 278 279 280 281 280 281 281 281 281 281 281 281 281 281 281 281 282 283 284 286 287 287 288 288 289 290 290 291 292 292 292 292 292 292 292 292 292 291 291 293 293 293 293 294 294 295 295 296 297 298 298 299
281 281 280 280 280 280 279 278 279 279 279 279 280 279 279 279 279 278 278 279 279 279 279 279 278 280 279 279 280 280 280 279 279 279 280 281 281 282 281 282 283 283 283 283 284 286 287 288 289 290 290 291 291 291 292 292 292 291 291 291 291 292 292 293 293 294 293 294 294 295 296 298 297 297
281 281 280 280 280 279 279 279 279 279 279 280 279 278 278 278 278 278 279 279 279 279 279 279 279 279 280 280 278 280 281 280 279 278 278 279 281 282 281 280 282 283 283 284 287 286 286 287 286 288 289 290 290 290 290 291 290 290 290 291 292 292 292 292 292 292 293 293 293 293 294 295 297 298
280 280 280 279 279 279 279 280 280 280 279 278 277 278 278 279 279 279 279 279 279 279 278 278 278 279 278 278 279 280 280 279 279 280 280 278 279 280 281 282 281 281 282 282 282 285 285 285 285 287 288 288 289 289 289 289 289 289 290 291 292 293 293 293 293 294 294 293 294 294 295 295 294 297
280 279 279 279 280 281 282 282 281 282 281 279 277 278 279 279 279 279 279 279 279 279 278 278 279 278 278 278 278 278 278 278 278 280 280 279 280 280 280 280 282 282 282 281 282 282 282 282 282 283 283 284 286 286 287 287 287 289 290 292 293 293 294 292 292 293 293 293 293 293 293 294 294 295
279 279 279 279 281 281 281 280 281 281 281 282 281 280 280 280 280 280 279 279 279 278 277 277 278 277 277 278 278 278 279 280 280 279 280 278 279 279 279 280 281 282 282 281 279 281 283 282 282 283 282 284 284 284 285 285 287 289 292 292 293 293 293 294 294 294 293 293 294 294 294 294 294 295
278 278 279 279 280 280 280 279 280 280 281 281 282 283 283 283 281 279 278 278 279 278 277 278 278 277 277 277 279 279 279 280 280 279 279 279 278 277 276 275 278 283 282 280 279 280 282 283 281 282 283 283 283 284 284 289 290 290 292 293 293 293 293 293 293 293 293 293 293 293 294 294 294 294
278 278 278 279 279 279 279 278 277 278 280 281 282 283 283 283 283 283 281 279 278 278 277 277 277 277 276 277 278 278 279 279 279 279 279 278 278 277 276 276 275 280 282 280 279 279 282 283 282 281 282 283 284 285 288 290 290 291 292 292 292 292 292 292 293 293 292 292 292 293 293 293 293 294
278 278 277 277 278 278 278 278 277 277 278 281 282 283 283 282 282 282 283 283 281 280 278 277 277 277 277 277 277 279 279 280 278 278 278 278 278 278 276 277 277 279 281 280 279 278 280 282 281 281 282 283 284 285 287 289 290 290 291 291 292 292 291 292 292 292 292 292 292 292 293 293 294 294
278 277 277 277 276 277 277 277 277 278 279 280 281 281 280 280 280 281 281 281 281 281 279 278 276 278 279 278 279 280 281 279 278 278 277 278 277 277 277 278 279 280 282 279 279 277 279 281 280 280 282 284 284 284 287 289 289 290 290 290 290 290 290 291 291 291 291 291 292 291 291 292 292 292
278 277 277 277 276 276 276 277 279 280 281 281 280 279 279 279 279 279 278 277 277 278 279 279 279 279 280 280 280 280 281 280 280 279 278 278 278 279 280 280 280 280 281 281 279 275 279 281 280 281 282 284 284 284 286 288 289 289 289 289 289 289 290 290 291 291 291 291 290 290 291 290 290 290
278 277 277 277 276 276 276 278 282 283 282 280 279 278 278 278 278 277 278 280 281 280 280 280 280 280 281 282 281 281 280 279 279 279 279 279 278 277 276 275 277 277 279 280 279 277 278 282 280 281 283 283 282 282 282 286 286 287 287 288 289 289 290 291 291 291 291 289 289 290 289 289 289 289
277 277 277 277 276 276 276 279 283 283 282 279 278 277 276 275 274 274 276 279 281 282 282 282 282 282 282 282 282 282 282 280 280 278 276 275 276 275 273 274 275 275 278 280 280 279 278 281 281 280 281 281 280 280 281 280 282 284 285 286 288 289 292 292 291 290 289 289 289 289 289 288 288 287
277 277 277 278 276 276 277 281 283 283 281 278 278 277 274 272 272 274 277 279 279 280 279 279 279 279 279 279 280 280 280 281 280 276 273 275 276 274 274 273 274 276 278 279 281 278 278 280 281 278 279 279 279 280 280 278 278 280 282 285 287 289 290 290 289 289 289 288 288 287 287 287 285 283
276 276 277 278 278 278 280 282 282 282 280 278 277 275 273 272 273 276 277 275 273 272 271 272 273 273 275 275 275 276 279 279 278 277 276 277 275 273 274 274 274 273 275 279 281 277 278 278 278 277 275 274 277 279 278 277 276 277 278 280 281 286 288 289 288 288 288 287 287 287 286 286 284 281
276 276 276 277 278 280 281 282 281 281 281 278 276 274 273 273 274 277 274 273 272 270 270 270 271 272 273 274 274 274 275 276 276 277 277 277 276 275 275 275 275 274 275 280 282 277 277 277 275 277 275 272 271 276 278 276 276 276 278 278 279 282 284 285 286 287 287 287 286 286 286 285 283 280
274 274 275 275 278 280 281 280 280 280 280 279 276 275 275 276 277 277 272 270 272 269 269 270 270 271 271 272 272 273 274 274 275 276 277 277 277 276 275 275 275 275 278 280 282 276 274 274 273 274 274 274 274 274 277 276 276 276 277 277 277 279 280 281 281 281 284 286 286 286 285 285 284 281
274 274 275 275 278 280 279 278 279 279 278 278 276 276 278 278 277 273 271 269 268 268 268 269 269 270 270 270 271 272 273 273 274 275 276 277 277 278 278 277 276 275 275 279 279 274 272 271 272 272 272 272 273 274 274 273 275 275 275 275 275 276 278 279 279 280 280 281 282 283 283 284 284 283
274 275 276 277 278 278 277 277 278 277 277 276 275 277 276 276 275 271 267 268 267 267 268 268 268 269 269 269 270 271 271 272 274 275 275 276 277 278 279 279 279 277 278 276 275 273 271 270 272 271 270 271 271 273 272 270 271 274 274 273 273 274 276 276 275 275 276 276 277 281 282 283 284 283
275 275 277 277 277 276 276 276 276 276 275 274 275 275 274 273 271 267 266 265 266 267 267 267 267 267 269 270 270 271 272 273 273 274 275 276 277 278 278 277 277 277 275 273 272 271 271 270 270 271 271 270 270 271 271 272 272 271 271 273 272 272 273 274 273 274 274 274 274 274 273 272 273 275
276 277 277 276 275 275 275 275 274 273 272 273 273 273 272 269 264 264 264 264 265 266 266 266 266 267 268 269 270 272 272 273 273 274 275 276 277 277 277 276 276 275 271 271 270 270 271 270 270 271 271 273 272 272 271 269 269 269 270 270 268 270 271 271 271 271 271 271 271 271 271 271 271 272
276 275 274 274 273 272 272 270 267 268 267 271 271 270 268 264 263 263 263 264 264 264 265 265 266 266 268 269 270 271 272 272 272 273 274 275 275 275 274 273 273 273 271 270 270 271 271 270 270 270 271 271 270 270 270 269 268 268 269 269 269 270 270 270 270 270 269 269 269 269 269 270 269 269
269 270 270 269 271 271 271 271 270 269 268 265 264 263 262 262 262 263 262 263 263 264 264 265 265 267 268 269 270 269 270 271 272 274 274 274 273 273 272 271 270 270 270 269 270 272 272 270 270 270 268 269 269 269 269 269 267 267 267 268 268 265 267 269 269 268 268 268 268 268 268 269 269 270
268 264 269 267 264 264 263 263 261 261 261 262 262 261 260 260 262 265 267 266 264 264 266 266 267 267 268 267 268 269 270 271 272 274 274 273 272 271 270 268 268 268 268 268 269 271 273 271 270 270 269 268 267 268 269 268 267 267 266 267 268 268 268 267 267 267 268 268 266 266 267 267 267 268
263 261 260 260 261 261 261 261 260 259 258 260 260 259 260 259 260 260 260 260 262 263 265 265 266 266 267 267 268 269 269 270 272 273 273 272 270 270 269 267 267 266 266 266 267 269 271 272 271 270 269 269 269 268 267 265 265 266 266 266 266 266 266 267 267 267 268 266 265 265 265 266 267 269
257 258 257 258 258 259 258 258 259 259 258 258 259 259 263 261 259 261 260 260 262 263 264 265 265 265 266 266 267 268 269 270 271 273 273 270 269 267 266 265 265 266 266 266 266 266 268 270 271 270 270 270 270 269 268 265 265 265 265 265 265 264 266 266 266 267 267 266 265 265 265 266 268 268
257 257 258 258 258 259 258 258 258 258 257 258 258 258 259 259 260 261 260 261 262 263 263 264 265 265 266 266 267 268 268 269 271 271 271 270 268 266 265 264 265 265 265 265 265 265 266 267 270 268 267 267 267 268 272 269 265 265 265 265 265 265 264 266 266 266 266 266 266 264 264 265 266 268
258 257 256 256 257 257 257 258 258 257 256 257 257 258 259 259 259 260 260 262 261 262 263 264 264 265 265 266 267 268 268 270 270 270 269 268 267 266 265 264 264 264 263 264 264 264 265 266 268 266 264 264 263 262 263 270 270 266 264 263 264 264 264 265 265 265 265 264 265 265 264 263 264 266
258 257 256 255 256 256 256 255 255 256 256 256 257 257 258 258 259 260 260 262 261 262 263 264 263 264 265 266 266 267 268 269 269 269 268 267 266 266 265 264 264 263 262 262 263 263 264 264 266 266 263 262 261 260 261 265 269 270 266 264 263 264 264 264 264 263 263 264 263 264 264 264 264 266
257 256 255 256 255 254 255 255 256 256 256 257 256 257 257 258 259 260 260 260 260 262 263 263 263 264 265 265 265 265 267 269 269 268 267 266 265 265 264 264 262 261 260 261 262 263 264 264 263 264 264 262 261 262 261 263 264 266 270 266 263 263 264 263 262 261 262 263 263 265 266 265 266 268
255 255 256 254 255 254 254 254 256 255 255 255 256 256 257 257 258 259 259 260 261 262 263 263 263 264 264 263 264 265 266 268 268 267 266 266 265 264 263 263 261 259 259 259 261 262 263 263 263 263 263 262 262 262 262 262 262 265 269 270 266 264 263 263 262 262 262 262 263 265 265 267 270 273
256 256 255 255 254 253 253 254 254 254 254 255 255 255 256 258 258 259 260 261 262 262 262 263 263 263 263 263 263 264 267 268 268 267 266 265 264 263 261 261 259 258 257 259 260 261 262 262 264 264 263 263 264 265 265 265 265 267 267 269 270 266 263 263 263 262 262 262 263 263 263 264 263 264
258 257 255 255 253 253 253 253 253 254 254 255 255 257 257 257 259 260 261 262 262 261 262 262 262 263 263 263 263 264 265 267 267 267 266 263 262 261 262 261 257 258 257 258 259 260 261 262 265 268 266 265 265 265 264 262 261 262 264 266 270 270 269 267 262 261 261 262 261 260 260 259 259 260
258 257 254 252 252 253 253 253 253 253 253 254 254 255 255 257 259 263 262 262 261 262 262 262 262 262 263 263 263 265 265 267 267 266 264 262 259 258 259 258 257 259 258 258 259 259 261 263 265 265 264 265 264 262 260 261 260 261 263 264 266 270 270 269 269 267 263 262 260 260 259 260 259 258
258 256 255 255 254 254 253 254 253 253 253 253 253 254 255 256 257 259 259 260 261 261 261 261 262 262 262 263 264 265 265 266 266 265 263 260 258 257 257 256 257 257 256 257 257 259 260 261 262 263 263 263 262 262 260 260 261 261 262 262 263 265 267 270 271 271 270 269 268 264 260 260 259 256
257 257 255 254 254 254 253 253 252 252 253 253 253 254 254 255 257 259 259 260 260 260 261 261 261 261 261 262 264 264 265 266 266 265 263 262 259 257 256 257 258 256 257 257 257 258 258 259 260 261 260 260 260 261 260 260 260 260 260 261 262 263 263 264 265 268 268 270 271 270 269 268 268 268
257 257 256 254 254 254 253 253 253 253 253 253 253 253 255 255 257 258 258 259 260 260 261 261 261 261 261 262 263 263 264 267 266 265 264 262 260 258 256 256 256 256 256 256 255 255 256 257 258 259 258 258 259 258 259 259 259 259 259 259 259 259 259 260 261 261 262 262 268 272 271 271 270 270
Wind_Speed
5 6 6 4 3 3 3 3 3 4 3 4 3 2 2 3 3 7 8 11 2 3 1 1 4 4 9 8 5 5 7 7 10 9 9 10 10 16 24 25 26 26 27 28 29 30 30 30 31 32 31 32 32 33 33 35 34 35 36 36 38 38 38 37 37 37 36 36 36 36 36 36 36 36
4 4 5 3 4 3 3 3 2 3 4 3 3 3 3 3 2 3 6 12 1 5 1 1 4 8 6 6 9 6 6 10 13 10 11 11 11 20 23 22 24 26 28 28 29 31 31 31 31 32 32 33 33 34 34 34 35 35 37 38 38 39 37 37 37 37 37 36 38 37 38 37 37 36
5 6 6 3 4 3 4 4 4 4 4 3 3 3 2 2 3 4 5 8 5 5 10 4 2 10 12 8 9 7 7 11 14 12 11 11 15 19 16 18 23 26 29 30 30 31 32 31 32 33 34 34 35 35 36 36 35 37 37 38 38 37 38 37 37 37 36 37 36 37 36 36 35 36
6 6 5 4 3 3 3 3 3 3 3 3 3 2 2 2 2 3 4 8 16 9 6 12 8 5 13 12 10 14 10 8 13 11 12 14 16 11 11 17 22 25 28 29 29 30 30 31 33 34 34 35 34 35 35 35 36 36 37 36 37 37 36 37 37 36 35 35 35 34 35 34 34 34
5 4 4 4 3 2 3 3 3 3 3 3 3 2 2 2 3 2 3 7 13 15 2 5 9 9 11 12 9 14 15 14 11 10 10 13 12 12 11 12 15 20 27 29 29 30 31 33 33 33 33 33 34 34 34 35 35 35 35 36 36 37 36 36 35 35 34 35 35 34 34 35 33 33
3 3 4 3 3 2 3 3 4 3 4 4 4 4 3 3 4 2 2 5 8 16 16 10 8 6 4 11 9 10 14 17 17 15 12 10 11 11 11 12 12 20 24 29 31 32 32 32 32 32 32 33 34 33 34 34 34 35 35 35 35 35 36 35 35 35 35 35 36 35 34 34 34 33
3 3 4 3 3 2 4 4 4 4 5 4 4 4 3 3 3 3 3 4 9 12 17 13 10 9 9 7 12 12 11 12 14 16 16 15 14 12 11 10 10 13 21 29 31 32 31 31 31 31 32 33 33 34 35 35 35 36 35 36 36 37 36 36 36 36 36 36 35 35 33 33 34 34
3 3 4 4 3 3 6 5 5 5 4 4 3 3 3 3 4 3 3 3 5 10 13 16 13 10 12 12 8 10 11 11 12 13 14 13 13 14 11 12 12 14 25 26 28 30 30 30 29 31 33 32 31 32 34 35 35 35 34 34 35 35 35 35 34 35 35 34 35 34 34 33 33 35
4 4 5 4 4 4 6 5 5 4 4 4 4 4 4 5 4 4 3 4 4 8 12 15 14 12 10 9 10 6 12 15 14 14 14 13 14 14 12 9 9 18 25 26 27 26 26 27 29 30 32 33 32 32 33 34 33 35 35 37 36 34 34 34 34 34 34 34 33 34 34 35 34 34
4 5 5 5 4 5 6 4 4 4 5 4 5 5 5 5 5 5 5 5 6 7 10 11 16 15 14 13 12 9 7 11 14 15 16 14 11 13 14 11 7 3 6 12 14 17 18 21 28 32 33 32 30 31 31 32 32 32 32 32 33 34 34 33 33 34 34 33 33 34 33 31 33 32
5 5 5 5 4 5 4 4 4 4 4 4 4 5 5 5 6 6 6 6 7 8 10 11 10 13 11 8 14 11 9 11 9 12 12 15 14 13 15 17 11 10 10 13 20 22 23 25 22 25 32 31 29 29 29 29 30 29 30 31 32 33 34 34 34 34 33 34 34 34 32 32 33 30
6 6 5 4 4 5 4 4 4 4 4 4 4 4 4 5 6 7 7 8 8 9 10 11 13 11 12 10 7 10 9 10 8 5 11 16 17 15 16 15 17 14 13 13 14 16 17 17 15 19 25 26 23 25 25 25 26 27 27 30 31 32 32 32 31 32 31 32 32 31 31 31 31 32
5 5 4 4 4 6 7 10 8 7 6 4 4 4 4 5 6 7 7 7 8 8 10 11 10 12 12 10 11 12 13 12 15 16 10 13 13 14 16 16 13 9 14 14 11 17 14 15 12 11 13 14 18 18 23 21 24 24 28 31 33 32 32 31 33 34 32 30 30 30 29 31 29 28
5 5 4 4 8 7 7 7 9 9 8 8 6 5 5 6 7 7 7 7 7 9 11 10 10 13 15 13 10 11 12 11 13 14 14 15 14 17 14 15 12 9 7 12 15 15 12 11 15 11 13 11 13 12 12 14 20 25 32 33 33 34 34 31 33 30 30 31 29 28 29 30 31 28
5 4 4 4 5 5 4 4 7 8 8 8 9 10 11 9 8 9 10 9 8 8 9 10 10 11 17 16 10 12 11 13 12 12 12 12 13 13 14 20 15 4 13 16 15 19 14 12 14 15 13 11 11 12 12 23 29 32 32 33 33 34 33 32 33 31 31 31 32 31 30 31 30 31
4 4 4 4 4 3 5 3 2 4 7 8 10 11 12 13 14 13 10 11 10 10 10 12 10 10 14 15 11 10 11 12 11 12 12 11 14 15 15 14 16 13 12 14 15 18 14 13 15 12 11 11 10 12 20 29 32 33 33 33 33 31 32 32 32 31 30 30 30 32 31 33 34 33
4 4 4 4 3 3 5 3 3 3 5 8 10 12 13 13 14 13 15 14 11 10 11 11 12 9 10 15 13 10 12 14 14 14 11 12 11 15 15 14 14 17 10 12 12 16 15 12 14 14 11 10 11 13 16 26 33 33 33 33 32 31 31 32 31 30 29 30 28 30 32 26 25 28
5 4 4 3 3 3 3 3 3 5 5 6 6 6 7 8 10 12 14 15 16 12 9 10 12 12 10 13 14 13 14 12 13 11 13 12 15 14 18 18 19 16 10 11 13 15 13 11 14 14 12 10 12 13 17 28 31 32 31 29 31 32 33 33 33 28 28 26 27 19 18 31 31 29
5 4 3 3 2 3 3 4 6 7 6 6 6 7 7 8 7 7 7 6 6 7 8 10 11 13 11 11 11 11 10 12 10 11 14 15 13 15 14 17 15 14 8 11 11 15 14 11 13 14 12 11 12 13 15 23 27 26 27 30 32 34 36 36 32 28 23 22 11 17 35 35 36 36
4 3 3 2 1 2 3 6 11 11 9 6 8 8 7 6 6 5 8 12 13 11 10 9 11 11 15 18 17 16 15 12 12 11 12 10 11 12 14 14 12 12 8 9 12 12 12 11 13 15 12 11 13 16 12 15 21 24 27 29 32 35 36 34 24 18 11 15 22 26 35 36 36 35
4 3 3 1 0 2 3 6 12 13 13 6 8 9 8 7 7 7 7 11 15 15 17 19 21 21 22 23 24 23 24 18 15 11 11 11 11 14 14 14 13 15 13 11 11 11 14 11 13 13 11 13 14 14 12 8 15 23 25 29 34 35 23 16 15 20 25 22 24 25 30 31 29 29
3 3 3 2 1 2 3 8 12 14 10 6 8 8 10 11 9 8 6 5 6 12 15 17 18 19 20 22 22 21 20 20 16 10 11 13 12 13 12 14 13 13 13 11 11 12 12 13 11 12 14 13 9 11 8 8 12 17 19 27 30 30 35 34 31 29 28 27 27 28 29 27 24 17
2 2 1 4 4 3 5 11 12 13 10 6 6 7 8 10 10 9 10 10 11 10 9 7 8 8 11 11 10 11 19 19 14 9 10 11 10 13 14 14 13 12 11 13 15 15 12 11 11 11 11 12 10 5 9 8 9 10 11 13 15 28 27 32 29 30 30 29 29 28 28 27 21 15
1 1 0 3 5 7 9 11 11 10 11 7 5 5 6 9 9 10 10 9 10 11 10 10 10 10 9 8 9 8 9 9 9 10 8 9 10 11 13 13 13 11 11 12 16 12 10 11 13 9 8 9 10 11 11 7 9 10 10 12 11 19 20 19 23 29 27 26 29 28 28 26 21 14
1 0 1 2 4 8 10 10 10 10 10 9 5 6 6 8 13 16 10 12 15 10 10 10 9 9 9 8 8 7 8 8 9 10 10 8 9 11 12 12 13 12 12 14 20 11 9 10 12 11 9 8 9 11 9 5 8 8 10 9 9 11 10 11 10 12 20 28 29 30 29 28 27 18
2 1 1 1 4 8 9 9 9 10 9 10 5 6 13 16 17 12 9 9 9 9 9 9 9 9 10 10 10 10 9 9 10 10 10 11 12 8 10 12 13 12 14 13 18 11 10 9 10 11 9 9 10 9 9 5 4 8 8 10 10 9 10 9 9 11 11 10 13 19 24 30 28 29
1 1 1 1 6 7 7 8 9 8 9 6 7 12 13 14 17 13 7 9 8 8 9 9 9 9 9 11 11 11 11 11 11 12 11 13 11 11 9 10 10 12 11 10 10 10 8 8 10 9 11 9 10 9 3 3 5 7 8 10 10 10 10 9 10 10 11 11 12 23 24 28 30 31
1 1 1 3 5 5 6 7 7 7 7 6 10 11 13 15 13 7 8 7 7 8 9 9 9 9 10 9 11 11 12 12 13 12 12 11 14 12 12 14 13 10 5 9 9 8 7 7 9 9 9 9 9 9 3 2 4 6 6 6 9 10 10 9 10 10 10 10 11 11 11 11 11 12
0 2 4 5 4 5 5 6 6 5 7 9 9 10 12 11 6 6 6 7 7 8 8 9 8 8 8 9 10 11 11 12 12 11 10 10 9 10 11 11 9 8 4 8 7 7 8 8 8 10 8 6 7 6 5 3 4 6 7 6 8 10 9 9 9 9 10 10 11 11 9 8 10 11
5 5 5 5 5 5 3 2 1 1 3 8 8 9 9 5 6 5 6 5 6 7 7 8 8 9 9 10 10 11 10 11 10 11 11 11 11 11 11 12 11 8 6 8 7 6 8 9 8 9 8 7 7 6 6 5 6 6 8 7 3 4 10 8 9 8 10 11 11 11 11 9 9 9
5 4 3 2 3 3 4 3 3 3 5 4 3 3 4 5 6 6 5 5 6 7 7 8 8 8 9 9 10 9 10 10 10 9 11 9 10 10 10 10 10 12 11 8 8 6 6 8 8 9 7 7 7 8 6 6 6 7 8 8 7 6 5 7 8 9 8 9 9 10 10 10 11 11
4 3 4 4 2 1 1 1 1 2 2 3 4 3 4 5 6 6 7 7 5 5 6 7 7 8 9 10 9 9 9 10 8 9 8 10 9 11 10 9 10 10 11 11 9 9 6 4 8 8 8 7 7 6 6 8 8 7 7 7 6 6 6 7 7 7 7 8 11 11 10 10 10 9
4 4 2 1 0 0 0 0 1 2 2 4 4 4 4 4 5 4 4 5 6 6 6 7 8 9 9 9 9 9 8 8 9 8 8 8 9 8 8 8 9 10 11 11 11 10 9 6 3 7 8 8 9 8 6 8 8 7 6 6 6 7 7 7 6 6 5 10 10 9 11 9 8 8
5 4 4 3 2 1 1 1 2 3 3 4 5 4 5 5 4 4 4 4 5 6 6 6 7 8 9 9 9 9 10 8 7 8 11 9 9 9 9 9 9 9 8 9 9 10 10 9 5 1 3 7 10 12 9 7 6 6 6 5 6 7 7 6 7 7 7 7 8 11 9 9 9 8
4 3 5 2 1 1 1 0 1 2 2 3 4 5 5 4 4 6 5 4 6 6 6 6 6 7 8 9 9 9 9 10 9 7 7 7 8 8 8 8 9 9 9 10 10 10 9 9 7 4 2 2 4 9 17 12 5 6 5 7 6 6 6 6 6 7 7 7 6 11 9 8 8 6
5 5 4 2 1 1 1 0 1 1 2 3 4 4 4 5 4 5 6 6 6 6 6 6 7 8 8 8 8 9 10 9 9 9 9 9 9 8 7 6 7 7 7 7 9 9 8 8 7 4 4 4 4 6 8 16 15 5 5 5 6 5 5 6 6 6 7 7 6 7 9 8 6 5
6 4 3 3 2 1 0 1 1 2 2 3 3 3 4 5 6 5 6 6 5 5 6 6 7 7 8 8 9 9 9 9 8 9 9 8 8 8 8 8 8 6 7 7 7 8 8 8 7 5 3 5 6 7 5 4 13 15 5 5 5 5 4 4 6 8 7 6 7 7 6 6 5 4
6 5 4 3 2 1 1 1 1 1 2 2 3 4 4 5 5 5 5 5 5 5 6 6 6 7 7 8 9 9 8 7 7 7 8 8 9 9 8 8 7 7 6 6 6 7 7 7 7 6 4 4 4 4 4 4 4 7 11 5 5 4 3 6 8 6 6 5 6 4 4 7 5 2
5 5 4 4 2 2 2 2 1 1 2 3 3 4 5 5 5 5 5 5 5 6 6 6 6 7 7 7 8 8 9 9 8 8 8 8 8 8 8 8 7 6 5 6 6 7 8 9 8 7 6 3 4 3 3 4 6 4 7 10 4 4 4 5 7 5 5 5 4 4 5 4 7 14
5 4 5 3 3 3 3 2 1 2 2 3 4 4 5 5 5 5 5 6 6 6 6 6 7 7 6 6 7 8 8 8 8 7 7 7 7 6 6 5 5 6 6 6 7 7 8 8 7 7 6 5 5 5 5 6 4 3 4 8 11 6 2 1 5 6 5 3 2 4 6 5 5 4
5 5 5 5 4 4 3 2 2 2 2 4 4 4 5 4 4 4 4 5 6 6 6 6 7 7 7 7 7 8 8 8 7 7 7 6 7 6 7 6 5 6 5 5 6 6 7 6 7 8 5 4 3 2 2 4 5 4 5 5 8 10 9 6 2 2 4 2 4 5 5 3 2 3
6 6 6 5 5 5 4 3 3 2 3 4 5 6 4 3 3 6 6 8 6 6 6 6 7 7 7 7 8 8 8 7 7 7 7 6 6 6 6 4 5 5 5 5 5 5 6 6 5 4 3 4 3 4 5 4 5 3 3 3 4 7 12 14 13 11 7 5 4 4 3 3 3 3
6 6 6 5 4 5 4 4 3 3 4 4 5 5 4 4 3 4 4 5 5 5 5 6 6 6 7 7 7 8 8 7 7 7 6 5 4 5 6 5 4 4 4 5 3 3 5 6 5 4 4 5 4 2 5 2 2 3 2 3 4 4 5 8 10 9 7 7 5 3 4 4 4 2
5 5 5 5 5 5 4 4 4 3 3 5 5 4 3 3 3 4 4 5 5 5 5 5 6 6 7 7 8 7 7 6 6 7 7 6 4 4 4 4 4 3 4 4 5 5 5 5 5 4 4 5 4 4 4 3 3 3 2 2 3 4 5 4 6 10 12 14 9 5 1 6 3 3
7 6 5 5 5 5 5 5 4 3 3 4 4 4 3 3 3 4 4 5 5 5 5 5 6 6 6 7 7 7 8 8 7 6 5 5 4 4 3 3 3 3 4 5 3 4 4 4 4 4 5 5 4 3 4 3 3 3 3 4 4 4 4 4 5 5 6 5 13 13 12 10 11 14
Wind_Direction
74 72 64 70 62 38 30 45 40 37 39 36 20 6 24 345 307 324 315 321 54 298 78 327 296 81 19 331 352 333 308 314 324 326 321 318 316 318 321 322 323 323 324 324 320 317 315 314 314 314 313 311 309 307 306 306 306 305 305 304 303 302 301 300 299 298 297 297 297 295 293 292 291 291
68 78 73 62 61 18 31 39 39 47 40 41 22 22 345 343 313 289 312 299 325 267 331 153 318 317 339 345 322 334 317 323 332 324 321 319 317 319 322 323 324 324 325 325 321 320 317 317 316 316 315 313 311 309 308 307 307 305 305 304 303 302 302 301 301 300 301 300 299 297 295 293 291 291
79 82 70 58 54 24 29 24 23 25 32 14 26 15 353 349 322 296 300 300 273 86 325 303 340 313 323 338 319 325 332 329 330 326 319 317 317 319 320 320 325 327 326 324 322 320 318 316 318 318 316 314 311 311 310 309 307 306 304 303 302 302 302 302 302 302 301 301 298 296 295 295 294 293
64 65 66 52 55 25 48 37 30 25 19 42 20 18 6 338 310 298 286 267 282 309 304 298 311 337 322 330 335 329 327 325 326 323 320 317 320 321 319 321 324 325 324 323 321 319 320 320 318 316 315 315 313 312 310 309 308 307 306 304 302 301 300 299 299 299 300 300 300 299 298 297 295 294
75 89 88 74 50 68 68 58 45 42 31 29 27 28 45 333 310 318 274 284 294 300 185 279 306 332 330 322 347 327 326 324 323 320 313 316 320 321 318 314 315 321 323 321 320 321 320 318 317 317 316 314 314 314 314 313 312 310 307 305 303 301 299 296 297 299 301 302 301 299 298 297 296 295
85 100 96 73 62 59 82 68 50 42 32 31 24 11 16 346 326 308 296 287 291 296 311 311 309 312 349 314 329 328 325 322 321 323 325 317 314 313 310 310 313 318 321 322 318 318 317 317 316 316 314 314 315 316 314 313 312 310 309 306 302 300 299 297 298 300 300 299 299 298 297 297 296 296
113 96 86 71 59 56 65 55 45 36 30 23 20 355 340 340 313 306 278 300 304 307 304 306 313 324 323 317 318 323 317 312 315 319 323 322 317 312 307 304 305 308 318 319 318 315 313 314 313 314 312 312 314 316 316 315 313 312 309 308 304 301 299 297 297 298 298 298 297 296 296 294 294 293
105 101 85 61 51 47 54 43 34 28 23 16 3 343 332 327 320 308 303 267 281 300 305 308 318 321 322 317 318 316 311 315 317 316 311 310 307 307 307 309 310 310 316 316 311 310 310 311 314 314 312 311 312 313 313 313 313 313 310 307 305 303 300 298 296 296 296 295 295 295 295 293 292 292
107 88 79 68 57 50 55 35 32 19 13 1 357 350 337 335 318 314 302 292 280 293 298 303 307 313 306 304 308 326 323 321 319 316 312 308 306 300 294 283 296 308 315 312 307 304 304 309 312 312 310 309 311 311 310 310 309 310 308 308 307 306 303 298 296 296 296 294 294 294 294 294 292 292
85 84 74 67 62 55 56 35 21 18 6 358 355 347 339 330 323 318 311 297 293 288 290 297 306 312 320 320 312 323 314 313 318 318 314 310 308 309 308 303 295 238 288 307 304 302 305 308 313 313 308 306 308 309 307 307 305 304 303 300 301 303 301 296 294 294 294 294 295 295 296 293 291 291
78 72 71 64 58 57 51 40 23 12 1 359 349 337 333 326 323 319 313 312 309 306 304 300 291 298 300 306 308 320 324 310 301 305 312 310 314 311 312 311 317 320 306 293 292 299 305 310 309 304 302 303 306 303 301 302 301 298 297 298 298 299 299 298 297 298 300 298 298 297 294 293 291 287
69 70 66 62 54 53 45 42 25 15 358 355 347 329 329 322 320 318 319 318 313 308 309 305 308 303 303 308 294 303 314 309 299 301 316 310 314 316 314 310 316 319 314 315 314 306 307 306 298 295 293 299 301 300 299 298 296 298 297 296 299 298 298 298 297 296 293 296 297 295 294 292 293 288
72 68 62 58 48 43 44 33 21 8 2 354 340 322 322 318 317 314 311 307 305 299 303 306 305 306 306 309 319 321 326 326 319 317 313 302 302 309 307 305 302 305 318 315 313 306 308 307 305 300 297 303 307 301 303 303 301 299 299 300 304 305 300 303 306 305 303 301 299 300 298 298 293 289
74 68 61 55 48 49 45 31 13 5 358 348 337 323 323 321 316 312 308 307 305 304 307 309 316 314 309 313 320 314 310 309 311 312 318 314 314 311 299 295 305 325 327 320 309 297 301 306 303 301 301 303 303 302 304 303 301 303 307 309 305 308 308 307 308 309 310 309 309 309 303 301 296 288
87 72 67 67 56 61 42 23 6 357 351 342 335 328 325 322 321 319 315 307 306 303 298 304 309 308 307 308 315 311 311 312 311 312 311 308 308 309 316 316 314 345 349 321 312 304 310 310 303 306 307 304 303 304 304 304 309 312 311 310 310 311 312 310 310 310 314 315 313 310 305 302 298 292
79 72 64 56 59 45 21 3 347 327 328 327 328 327 324 323 319 312 308 311 311 313 310 307 304 309 304 306 312 313 317 314 311 310 308 308 309 313 314 307 303 314 335 311 305 298 306 311 302 300 306 305 298 306 309 311 312 313 313 312 312 314 313 311 309 310 311 312 310 309 307 304 296 286
83 74 63 54 40 34 3 350 332 307 298 304 311 319 324 321 317 315 310 305 301 305 302 303 301 298 301 303 305 310 308 310 304 308 307 316 315 308 300 299 305 309 325 303 297 296 307 311 305 305 307 305 308 311 310 308 313 314 313 316 317 314 309 306 305 305 308 309 312 312 312 304 288 275
79 71 67 55 23 8 344 324 322 309 299 307 318 324 324 317 316 315 311 308 303 299 293 291 290 294 292 293 299 300 305 304 305 310 314 317 305 303 303 301 297 298 310 301 301 294 303 307 303 303 305 310 310 310 308 312 311 315 321 324 316 311 306 302 301 303 307 312 316 329 51 52 56 59
75 69 67 51 29 351 328 316 335 324 326 329 327 321 314 313 309 310 308 298 290 282 277 277 280 288 291 290 298 304 309 311 316 316 305 304 304 296 287 284 287 291 300 294 294 293 303 303 297 298 309 317 314 311 312 311 316 326 328 320 314 309 306 303 304 309 310 321 17 79 73 67 61 62
77 79 64 53 25 312 316 315 342 343 339 333 324 319 312 310 313 303 296 293 295 293 290 287 293 300 303 309 313 317 318 316 306 299 303 296 291 293 297 298 303 298 303 295 296 292 293 299 300 303 316 320 318 314 315 322 331 332 328 321 317 318 311 303 305 316 346 91 90 70 72 71 70 66
85 79 58 72 187 286 284 318 344 341 343 332 325 320 321 321 316 302 288 273 276 298 306 310 311 312 315 317 317 317 316 316 319 318 309 307 310 308 311 309 309 307 314 309 297 294 300 303 309 312 321 326 316 312 323 341 337 334 330 331 329 331 337 9 54 82 91 74 63 66 70 71 65 63
89 64 48 19 230 278 291 338 345 343 346 334 329 328 328 325 318 307 296 303 312 317 316 314 314 314 314 315 314 313 317 323 328 320 313 313 310 308 307 307 306 300 303 298 308 306 305 315 334 329 320 314 309 311 325 350 339 339 338 343 338 9 55 67 70 67 67 70 67 65 65 67 68 61
96 63 11 4 6 358 341 346 345 345 346 335 337 340 327 316 312 315 337 334 328 326 323 313 312 308 311 303 299 305 320 324 322 309 305 305 304 305 305 303 302 299 306 312 320 316 325 338 334 337 324 317 309 305 334 348 351 345 344 343 347 5 35 62 67 71 69 69 69 68 70 68 69 69
64 102 342 328 348 356 346 346 346 345 345 344 349 335 313 306 311 334 333 329 325 317 318 316 320 314 312 307 308 305 304 312 315 323 308 299 299 297 301 303 302 298 307 309 334 333 327 337 321 334 318 312 318 329 334 353 0 351 350 353 353 10 12 34 61 63 66 67 67 67 66 65 69 76
117 60 322 305 336 346 346 348 346 347 349 349 349 314 307 325 324 329 328 325 329 318 317 319 319 316 318 316 308 307 312 318 318 316 315 305 304 308 304 304 304 298 308 327 351 346 327 328 316 322 315 308 293 310 323 353 2 356 354 354 351 359 12 25 38 44 55 62 65 66 66 65 64 63
114 120 258 250 331 349 351 351 349 351 351 344 331 324 330 328 330 333 330 320 319 319 320 323 322 325 328 327 328 329 326 327 324 323 320 319 315 308 302 304 310 314 325 341 353 344 329 319 319 315 312 312 305 307 315 342 357 357 359 10 2 360 10 12 26 39 45 52 57 67 68 67 67 67
129 211 235 328 356 358 357 355 353 352 345 344 333 335 335 338 338 337 321 317 316 319 323 325 330 332 332 334 334 333 331 327 328 327 325 320 317 312 306 314 324 319 320 343 346 343 331 307 310 313 310 307 304 305 339 351 348 349 24 18 10 13 15 24 41 40 41 44 42 54 62 66 71 73
107 144 32 12 6 13 8 0 354 346 343 337 337 341 343 344 339 323 319 316 319 321 321 327 329 335 336 332 330 331 328 326 325 321 317 316 316 318 328 331 325 323 353 346 340 333 324 301 305 306 300 299 296 306 334 14 9 3 11 10 25 22 15 23 40 39 40 45 53 47 39 38 34 56
144 43 36 30 32 25 15 6 355 351 337 335 341 344 347 343 317 318 315 318 323 327 328 328 324 325 331 324 315 311 315 315 313 314 313 310 311 323 322 322 320 327 8 344 333 333 337 329 314 315 301 325 332 350 27 53 22 20 9 7 29 12 14 23 34 45 47 47 51 43 39 41 50 51
68 53 49 43 42 31 11 38 351 1 320 338 340 344 340 317 312 302 311 317 327 319 321 326 330 324 319 320 317 317 314 315 319 317 318 324 331 336 337 332 334 339 354 345 331 333 353 350 347 334 333 4 5 13 17 32 45 19 12 18 355 19 23 22 33 38 52 56 56 57 48 39 40 46
71 61 62 59 51 40 16 21 358 353 331 325 317 313 300 298 295 299 305 318 316 317 322 326 324 318 313 311 316 319 318 317 316 315 320 324 334 337 335 332 328 336 342 343 332 330 359 7 358 0 4 357 19 26 20 43 50 39 34 30 16 58 356 23 34 39 45 60 60 55 50 51 52 50
93 78 53 48 24 15 9 343 353 302 299 300 297 294 294 284 292 304 314 313 296 300 312 312 315 317 323 322 316 311 314 315 310 314 325 335 336 340 335 335 343 338 333 339 339 337 346 17 21 11 24 17 21 8 37 48 48 39 45 29 35 39 29 30 36 36 34 62 61 54 50 50 51 46
85 84 73 96 122 172 140 325 330 316 324 317 308 302 292 303 313 305 309 311 314 318 328 335 332 327 321 315 312 308 307 315 319 321 331 341 339 332 340 341 337 342 339 336 335 336 339 338 51 44 28 38 35 31 39 55 35 30 36 28 36 43 25 23 26 32 18 63 67 62 58 45 40 43
110 127 146 163 152 117 70 19 355 337 336 322 320 310 327 325 312 307 299 294 307 321 331 328 328 323 317 310 311 311 315 307 312 333 347 340 340 341 347 344 342 336 335 333 334 334 334 332 324 125 68 49 52 45 36 46 54 34 30 31 37 48 32 30 35 28 42 48 80 76 60 51 44 40
119 147 149 158 152 147 123 136 295 311 314 308 311 315 315 303 307 308 300 309 323 327 326 327 324 317 312 308 309 313 313 318 322 331 345 343 341 344 342 343 341 342 343 341 341 338 335 330 336 348 359 350 33 45 45 39 31 36 39 42 28 42 36 30 35 34 43 43 46 83 75 64 52 34
154 154 145 154 166 165 100 225 283 281 287 297 306 306 319 314 300 309 314 324 329 321 323 324 325 319 313 309 311 312 311 316 325 335 341 347 346 341 338 339 336 340 345 345 338 335 335 334 336 2 24 13 36 34 9 28 41 10 35 41 31 34 36 35 41 39 41 44 32 68 80 65 39 19
159 164 157 171 185 154 174 253 255 268 284 295 300 299 300 302 303 303 304 321 313 315 317 320 316 315 315 314 313 312 312 319 329 338 341 342 343 339 340 341 349 350 347 345 340 336 344 345 346 2 31 53 56 55 30 319 34 42 19 44 39 31 31 41 53 52 33 47 52 53 75 82 70 30
165 163 174 189 176 175 179 227 246 286 289 293 294 299 293 284 292 302 311 323 318 314 315 311 306 311 316 318 317 316 315 313 325 335 340 343 346 345 346 339 341 348 340 336 344 349 354 356 360 354 10 85 101 63 30 357 9 18 40 41 66 47 42 75 63 63 56 34 64 50 67 80 82 119
165 172 185 183 190 168 199 220 216 260 285 287 291 287 294 293 299 313 322 321 315 316 314 311 310 315 318 316 316 317 316 321 335 342 346 347 347 343 341 340 340 337 342 353 350 358 4 10 5 357 351 23 75 89 104 92 43 343 38 53 47 69 55 69 88 73 66 68 39 34 33 22 46 52
196 178 188 179 194 186 204 210 209 230 255 267 271 270 274 291 302 309 312 315 320 316 312 311 318 319 315 318 315 311 307 318 330 339 346 346 341 343 337 341 334 334 341 356 1 0 6 1 2 9 8 37 73 95 107 102 102 43 36 49 59 67 40 33 99 105 73 28 26 62 61 37 48 352
192 190 209 183 189 200 197 204 208 218 245 261 267 275 272 274 292 296 304 318 316 310 312 316 319 322 322 323 321 317 315 320 331 340 345 345 338 338 341 346 339 343 350 357 358 358 355 334 332 1 5 348 338 317 23 52 53 19 36 30 60 77 82 74 83 78 99 66 57 71 62 59 45 11
186 198 198 186 182 212 194 201 216 215 242 253 263 267 275 285 281 311 318 310 301 301 308 318 323 326 325 324 319 316 313 317 330 338 345 344 332 332 335 347 346 334 351 350 347 331 310 318 334 8 9 18 11 48 61 70 94 80 45 21 1 67 95 102 102 107 118 127 122 94 67 34 26 30
192 192 197 200 187 192 201 206 211 212 236 247 255 262 277 289 289 297 299 302 301 306 313 319 322 325 324 319 316 312 308 312 327 332 334 335 330 326 328 329 324 323 319 309 310 324 338 341 351 4 39 53 35 62 105 75 57 56 52 31 21 355 31 73 97 111 126 144 144 162 174 175 149 160
197 197 202 191 187 201 209 208 209 215 227 239 250 259 269 275 291 290 290 291 300 306 310 314 318 322 321 316 312 308 307 309 325 329 327 326 326 316 311 314 324 332 328 333 333 355 349 3 7 10 47 38 14 70 91 87 67 29 23 15 359 19 36 3 24 36 32 25 42 102 178 184 240 203
179 186 199 200 196 199 202 207 209 217 220 239 247 253 263 279 282 281 282 282 289 297 305 312 317 320 315 315 315 313 309 314 322 316 313 310 317 317 314 313 328 339 340 335 345 345 355 12 10 26 52 41 32 39 33 44 53 39 23 38 37 19 6 357 25 26 18 18 4 44 80 86 106 109